TimeEST,TemperatureF,Dew PointF,Humidity,Sea Level PressureIn,VisibilityMPH,Wind Direction,Wind SpeedMPH,Gust SpeedMPH,PrecipitationIn,Events,Conditions,WindDirDegrees,DateUTC
12:53 AM,19.0,10.9,71,30.16,10.0,Calm,Calm,-,N/A,,Overcast,0,2013-02-17 05:53:00
1:53 AM,19.0,10.9,71,30.17,10.0,NNW,8.1,-,0.00,,Overcast,340,2013-02-17 06:53:00
2:19 AM,19.4,12.2,74,30.15,2.5,North,8.1,-,0.00,Snow,Light Snow,360,2013-02-17 07:19:00
2:27 AM,19.4,12.2,74,30.15,1.8,NNW,4.6,-,0.00,Snow,Light Snow,330,2013-02-17 07:27:00
2:30 AM,19.4,12.2,74,30.15,3.0,NW,4.6,-,0.00,Snow,Light Snow,310,2013-02-17 07:30:00
2:41 AM,19.4,12.2,74,30.15,10.0,NW,4.6,-,0.00,,Overcast,310,2013-02-17 07:41:00
2:53 AM,19.0,12.9,77,30.17,10.0,NW,3.5,-,0.00,,Overcast,320,2013-02-17 07:53:00
3:53 AM,14.0,10.0,84,30.18,10.0,WNW,3.5,-,N/A,,Clear,300,2013-02-17 08:53:00
4:53 AM,12.0,8.1,84,30.19,10.0,Calm,Calm,-,N/A,,Clear,0,2013-02-17 09:53:00
5:53 AM,10.0,6.1,84,30.21,10.0,Calm,Calm,-,N/A,,Clear,0,2013-02-17 10:53:00
6:53 AM,10.0,7.0,87,30.23,10.0,Calm,Calm,-,N/A,,Clear,0,2013-02-17 11:53:00
8:53 AM,18.0,9.0,68,30.27,10.0,WNW,5.8,-,N/A,,Clear,290,2013-02-17 13:53:00
9:53 AM,21.0,10.0,63,30.27,10.0,WNW,5.8,-,N/A,,Clear,300,2013-02-17 14:53:00
11:53 AM,25.0,8.1,49,30.29,10.0,NW,5.8,-,N/A,,Clear,320,2013-02-17 16:53:00
12:53 PM,28.0,8.1,43,30.27,10.0,West,4.6,-,N/A,,Clear,280,2013-02-17 17:53:00
1:53 PM,28.9,7.0,40,30.26,10.0,WNW,5.8,-,N/A,,Clear,300,2013-02-17 18:53:00
2:53 PM,30.9,6.1,35,30.25,10.0,Variable,4.6,-,N/A,,Clear,0,2013-02-17 19:53:00
3:53 PM,32.0,5.0,32,30.26,10.0,WSW,6.9,-,N/A,,Clear,240,2013-02-17 20:53:00
4:53 PM,30.9,5.0,33,30.24,10.0,West,4.6,-,N/A,,Clear,260,2013-02-17 21:53:00
5:53 PM,30.0,3.9,33,30.25,10.0,Calm,Calm,-,N/A,,Clear,0,2013-02-17 22:53:00
6:53 PM,23.0,8.1,53,30.25,10.0,Calm,Calm,-,N/A,,Clear,0,2013-02-17 23:53:00
7:53 PM,19.9,8.1,60,30.26,10.0,Calm,Calm,-,N/A,,Clear,0,2013-02-18 00:53:00
8:53 PM,18.0,10.0,71,30.25,10.0,Calm,Calm,-,N/A,,Clear,0,2013-02-18 01:53:00
9:53 PM,18.0,10.0,71,30.26,10.0,Calm,Calm,-,N/A,,Clear,0,2013-02-18 02:53:00
10:53 PM,19.0,9.0,65,30.26,10.0,East,3.5,-,N/A,,Clear,90,2013-02-18 03:53:00